Regional Weather Roundup
Issued by NWS Sioux Falls, SD

Home | Current Version | Previous Version | Graphics & Text | Print | Product List | Glossary On
Versions: 1 2 3 4 5 6 7 8 9 10 11 12 13 14 15 16 17 18 19 20 21 22 23 24 25 26 27 28 29 30 31 32 33 34 35 36 37 38 39 40 41 42 43 44 45 46 47 48 49 50
000
ASUS43 KFSD 191210
RWRFSD

WEATHER ROUNDUP FOR SE SOUTH DAKOTA/SW MINNESOTA/NW IOWA
NATIONAL WEATHER SERVICE SIOUX FALLS SD
600 AM CST FRI DEC 19 2014

NOTE: "FAIR" INDICATES FEW OR NO CLOUDS BELOW 12,000 FEET WITH NO
SIGNIFICANT WEATHER AND OR OBSTRUCTIONS TO VISIBILITY.


SDZ038>040-050-052>070-191300-
SOUTHEAST SOUTH DAKOTA

CITY           SKY/WX    TMP DP  RH WIND       PRES   REMARKS
CHAMBERLAIN    FOG       14  12  92 SE3       30.05S VSB 3/4
6HR MIN TEMP:  14; 6HR MAX TEMP:  25;

HURON          CLOUDY    28  25  88 S14       30.09R WCI  17
6HR MIN TEMP:  27; 6HR MAX TEMP:  28;

MADISON        CLOUDY    27  27 100 S15       30.10S WCI  15
MITCHELL       CLOUDY    29  27  92 S12       30.11S FOG     WCI  19
6HR MIN TEMP:  28; 6HR MAX TEMP:  30;

SIOUX FALLS    CLOUDY    28  25  88 S9        30.15R WCI  19
6HR MIN TEMP:  27; 6HR MAX TEMP:  29;

WINNER         FAIR      22  16  78 S7        30.03S WCI  13
YANKTON        CLOUDY    28  25  86 S9        30.16S WCI  20
$$

MNZ071-072-080-081-089-090-097-098-191300-
SOUTHWEST MINNESOTA

CITY           SKY/WX    TMP DP  RH WIND       PRES   REMARKS
FAIRMONT       CLOUDY    27  21  80 S7        30.21R WCI  19
JACKSON        CLOUDY    28  27  93 S8        30.19S FOG     WCI  20
LUVERNE        CLOUDY    30  28  93 S7        30.16S FOG     WCI  23
MARSHALL       CLOUDY    27  25  93 S7        30.15F WCI  19
6HR MIN TEMP:  25; 6HR MAX TEMP:  28;

MONTEVIDEO     CLOUDY    25  25 100 S7        30.17S WCI  17
PIPESTONE      CLOUDY    27  27 100 SW5       30.13S FOG     WCI  21
REDWOOD FALLS  CLOUDY    26  24  92 SE8       30.19S WCI  18
TRACY          CLOUDY    29  28  94 S5        30.16S FOG     WCI  24
WINDOM         CLOUDY    27  27 100 CALM      30.18R FOG
WORTHINGTON    CLOUDY    27  27 100 S8        30.17S WCI  18
$$

IAZ001>003-012>014-020>022-031-032-NEZ013-014-SDZ071-191300-
NORTHWEST IOWA

CITY           SKY/WX    TMP DP  RH WIND       PRES   REMARKS
CHEROKEE       CLOUDY    29  29  99 S6        30.20R WCI  23
DENISON        CLOUDY    30  30 100 S5        30.19S FOG     WCI  25
ESTHERVILLE    CLOUDY    26  25  96 S8        30.20S FOG     WCI  18
LE MARS        CLOUDY    30  28  93 S8        30.19S FOG     WCI  23
ORANGE CITY    CLOUDY    30  27  86 S7        30.17S FOG     WCI  23
SHELDON        CLOUDY    28  28 100 S8        30.17R WCI  20
SIOUX CITY     CLOUDY    31  28  89 S7        30.19F FOG     WCI  24
6HR MIN TEMP:  30; 6HR MAX TEMP:  31;

SPENCER        CLOUDY    29  26  89 S6        30.19S WCI  23
6HR MIN TEMP:  28; 6HR MAX TEMP:  29;

STORM LAKE     CLOUDY    28  28 100 S5        30.20S FOG     WCI  23
$$

ABBREVIATIONS USED IN REMARKS
   TC - TEMPERATURE IN CELSIUS
  WCI - WIND CHILL INDEX
   HX - HEAT INDEX
  VSB - VISIBILITY



USA.gov is the U.S. government's official web portal to all federal, state and local government web resources and services.